Overview Statistics Trail Chart Weather Telemetry Raw packets
 

This is the latest recevied weather packets stored in our database for station/object IT9IJI-15. If no packets are shown the sender has not sent any weather packets the latest 10 day(s).

<< 1 2 3 4 5 6 7 >>
Time Temp. Humidity Pressure Rain* Wind** Luminosity Snow
1788177920 41.11° C 21% 895.2 hPa - - - -
1788177018 33.33° C 35% 895.3 hPa - - - -
1788176645 27.22° C 45% 895.5 hPa - - - -
1788105852 42.78° C 25% 894.3 hPa - - - -
1788104953 42.78° C 25% 894.4 hPa - - - -
1788104052 43.33° C 24% 894.5 hPa - - - -
1788102252 43.33° C 24% 894.8 hPa - - - -
1788101352 43.33° C 24% 895 hPa - - - -
1788099552 43.33° C 25% 895 hPa - - - -
1788097728 43.33° C 26% 895.4 hPa - - - -
1788096828 42.78° C 26% 895.5 hPa - - - -
1788095928 42.78° C 26% 895.6 hPa - - - -
1788095028 42.78° C 26% 895.7 hPa - - - -
1788094127 42.78° C 26% 895.8 hPa - - - -
1788093228 42.78° C 26% 895.9 hPa - - - -
1788092327 42.78° C 26% 896 hPa - - - -
1788091429 42.78° C 26% 896.1 hPa - - - -
1788090530 37.22° C 26% 889.8 hPa - - - -
1788089603 42.78° C 26% 896.3 hPa - - - -
1788088703 42.78° C 26% 896.4 hPa - - - -
1788087803 43.33° C 25% 896.5 hPa - - - -
1788086903 42.78° C 26% 896.5 hPa - - - -
1788086003 42.78° C 26% 896.5 hPa - - - -
1788085115 42.78° C 27% 896.5 hPa - - - -
1788084203 42.78° C 27% 896.5 hPa - - - -

* Rain since midnight (hover to see other rain measurements)
** Current wind speed in m/s (hover to see current wind gust speed)